ST-2

Last updated on Nov. 15, 2019, 4:20 a.m. UTC

1 37606U 11022B   19318.42964726 -.00000197  00000-0  00000+0 0  9997
2 37606   0.0122 298.1364 0002057 312.8779  44.9067  1.00270112 31113
UTC
Height (km)
Latitude
Longitude
Inclination
Orbital Period
UTC large
Height (km)
Speed (km/s)
/
Latitude / Longitude
Inclination (degrees)
Orbital Period (minutes)
Azimuth
Elevation
Range (km)
Doppler Factor
iOS Compass Heading
iOS Angle

Next 30 passes for location: Hong Kong

Rise time Rise Azimuth (degrees) Set time Set Azimuth (degrees) Duration Max altitude (degrees)

No matching passes for this satellites